FENGYUN1
1 25730U 99025A   10307.70362148  .00001087  00000-0  65895-3 0  1752
2 25730 098.7994 269.1108 0020184 232.5763 127.3569 14.08376328591320
OKEAN-0
1 25860U 99039A   10307.67802270  .00000102  00000-0  22953-4 0 01411
2 25860 097.8532 275.7823 0001437 052.8351 307.2979 14.73677657607441
NOAA-16
1 26536U 00055A   10307.62343890  .00000146  00000-0  10436-3 0 00571
2 26536 099.1644 328.3391 0009921 308.6555 051.3743 14.12583119521511
NOAA-17
1 27453U 02032A   10307.87524112  .00000235  00000-0  11990-3 0 00487
2 27453 098.4146 352.5697 0012747 089.1265 271.1363 14.24205844434585
NOAA-18
1 28654U 05018A   10307.88626590  .00000036  00000-0  44878-4 0 05387
2 28654 098.9663 253.8462 0014796 022.7260 337.4561 14.11404485281141
NOAA-19
1 33591U 09005A   10307.90475242  .00000176  00000-0  12200-3 0 07348
2 33591 098.8015 247.1345 0013292 253.4626 106.5116 14.11098430089610
HUBBLE
1 20580U 90037B   10307.67721778  .00000548  00000-0  29018-4 0  6718
2 20580 028.4691 049.1646 0003439 240.8916 119.1353 15.01080128925731
ISS
1 25544U 98067A   10309.02977303  .00023092  00000-0  17438-3 0  2146
2 25544 051.6457 229.9395 0008070 159.0373 288.5994 15.72316712685629
CO-58
1 28895U 05043F   10307.59235248  .00000094  00000-0  28942-4 0 07207
2 28895 097.9933 187.2894 0017546 204.4878 155.5462 14.59956374267320
FALCON
1 30776U 07006E   10307.97168439  .00000855  00000-0  63807-4 0 09563
2 30776 035.4342 275.4889 0001669 318.6285 041.4310 15.03922668201114
MAST
1 31126U 07012K   10307.61283828 -.00000044  00000-0  21145-6 0    25
2 31126 097.9236 342.3046 0094601 152.0250 208.6071 14.53635906188315
CAPE1
1 31130U 07012P   10308.55667062  .00000253  00000-0  68545-4 0   237
2 31130 097.9233 340.3368 0103336 158.1138 202.4527 14.52244845188034
COMPASS
1 32787U 08021E   10307.25974546  .00000190  00000-0  30552-4 0 08225
2 32787 097.8790 009.9932 0015086 188.9063 171.1875 14.82022366136099
AAUSAT2
1 32788U 08021F   10308.39666888  .00000345  00000-0  49863-4 0  8114
2 32788 097.8806 011.2738 0014996 185.5158 174.5888 14.82177080136270
DO-64
1 32789U 08021G   10307.71350816  .00000598  00000-0  81176-4 0 08305
2 32789 097.8876 011.2439 0015371 186.6219 173.4778 14.82401420136177
CO-66
1 32791U 08021J   10307.16786708  .00000496  00000-0  69400-4 0 08123
2 32791 097.8817 009.8988 0015686 188.1287 171.9653 14.81785421136033
RS-30
1 32953U 08025A   10308.50260998  .00000010  00000-0  00000 0 0  1899
2 32953 082.4994 302.4287 0019186 152.1720 208.0394 12.43008965111174
TACSAT-3
1 35001U 09028A   10308.79716831  .00006086  00000-0  13691-3 0  4237
2 35001 040.4537 088.5826 0023055 336.4433 023.5328 15.43409483 82354
PHARMSAT
1 35002U 09028B   10307.80436774  .00005264  00000-0  11759-3 0 04010
2 35002 040.4697 092.1613 0025567 332.0965 027.8473 15.43748049082227
HAWKSAT1
1 35003U 09028C   10308.52851415  .00014000  00000-0  25653-3 0  4302
2 35003 040.4597 077.5741 0023839 358.5588 001.5172 15.48652674 82453
CP6
1 35004U 09028D   10307.77999232  .00017016  00000-0  29468-3 0  4284
2 35004 040.4622 079.7812 0022705 357.9288 002.1425 15.50175253 82350
AEROCUB3
1 35005U 09028E   10307.71164106  .00108159  00000-0  95143-3 0 05163
2 35005 040.4645 066.0178 0023766 027.0258 333.1794 15.67251895082508
CASTOR
1 35694U 09038F   10230.44082147  .07179566  12689-4  99310-4 0  6559
2 35694 051.5930 222.0149 0004218 308.0851 053.0105 16.48877011 61107
METEOR-M
1 35865U 09049A   10308.59602498  .00000176  00000-0  10000-3 0  8047
2 35865 098.7405 001.2630 0002336 341.0760 019.0304 14.21832629 58670
RS-38
1 35869U 09049E   10308.62245197  .00000177  00000-0  10000-3 0  8179
2 35869 098.7403 001.3300 0004213 329.9413 030.1492 14.21992457 58682
